GW4212 Weather Reports


time (UTC)temp
C
wind
direction
speed
KPH
gust
KPH
rain 1hr
cm
rain 24hr
cm
rain mn
cm
humidity
%
barometer
mb
20260502180231 17 0.0 0.0 0.00 0.00 0.00 99 1018.7
20260502170124 17 0.0 0.0 0.00 0.00 0.00 99 1018.7
20260502164102 17 0.0 0.0 0.00 0.00 0.00 99 1018.8
20260502163056 17 0.0 0.0 0.00 0.00 0.00 99 1019.1
20260502162039 17 0.0 0.0 0.00 0.00 0.00 99 1019.0
20260502161028 18 0.0 0.0 0.00 0.00 0.00 99 1018.9
20260502151831 19 0.0 0.0 0.00 0.00 0.00 99 1019.5
20260502150820 20 0.0 0.0 0.00 0.00 0.00 99 1019.7
20260502130603 20 0.0 0.0 0.00 0.00 0.00 99 1020.9
20260502123413 20 0.0 0.0 0.00 0.00 0.00 99 1021.1
20260502122406 20 0.0 0.0 0.00 0.00 0.00 99 1021.2
20260502121350 20 0.0 0.0 0.00 0.00 0.00 99 1021.1
20260502120238 20 0.0 0.0 0.00 0.00 0.00 99 1021.0
20260502115209 20 0.0 0.0 0.00 0.00 0.00 99 1021.1
20260502114057 19 0.0 0.0 0.00 0.00 0.00 99 1021.6
20260502113045 19 0.0 0.0 0.00 0.00 0.00 99 1021.6
20260502112040 18 0.0 0.0 0.00 0.00 0.00 99 1021.6
20260502110920 19 0.0 0.0 0.00 0.00 0.00 99 1021.6
20260502105910 18 0.0 0.0 0.00 0.00 0.00 99 1021.7
20260502104757 20 0.0 0.0 0.00 0.00 0.00 99 1021.8
20260502103747 20 0.0 0.0 0.00 0.00 0.00 99 1021.8
20260502102718 19 0.0 0.0 0.00 0.00 0.00 99 1022.0
20260502101712 20 0.0 0.0 0.00 0.00 0.00 99 1022.0
20260502100655 20 0.0 0.0 0.00 0.00 0.00 99 1022.1
20260502090445 19 0.0 0.0 0.00 0.00 0.00 99 1022.1
20260502071212 23 0.0 0.0 0.00 0.00 0.00 99 1021.6
20260502070156 22 0.0 0.0 0.00 0.00 0.00 99 1021.7
20260502065145 20 0.0 0.0 0.00 0.00 0.00 99 1021.8
20260502064032 19 0.0 0.0 0.00 0.00 0.00 99 1021.9
20260502063021 20 0.0 0.0 0.00 0.00 0.00 99 1022.0
20260502062010 19 0.0 0.0 0.00 0.00 0.00 99 1021.9
20260502061005 20 0.0 0.0 0.00 0.00 0.00 99 1021.7
20260502055949 18 0.0 0.0 0.00 0.00 0.00 99 1021.6
20260502054936 17 0.0 0.0 0.00 0.00 0.00 99 1021.6
20260502053926 17 0.0 0.0 0.00 0.00 0.00 99 1021.7
20260502052914 17 0.0 0.0 0.00 0.00 0.00 99 1021.6
20260502051903 17 0.0 0.0 0.00 0.00 0.00 99 1021.5
20260502050856 17 0.0 0.0 0.00 0.00 0.00 99 1021.5
20260502045840 17 0.0 0.0 0.00 0.00 0.00 99 1021.6
20260502044828 17 0.0 0.0 0.00 0.00 0.00 99 1021.4
20260502043818 17 0.0 0.0 0.00 0.00 0.00 99 1021.5
20260502042705 17 0.0 0.0 0.00 0.00 0.00 99 1021.5
20260502041654 17 0.0 0.0 0.00 0.00 0.00 99 1021.5
20260502040649 17 0.0 0.0 0.00 0.00 0.00 99 1021.6
20260502035631 17 0.0 0.0 0.00 0.00 0.00 99 1021.6
20260502034620 17 0.0 0.0 0.00 0.00 0.00 99 1021.7
20260502033402 17 0.0 0.0 0.00 0.00 0.00 99 1021.7
20260502032250 17 0.0 0.0 0.00 0.00 0.00 99 1021.6
20260502031031 17 0.0 0.0 0.00 0.00 0.00 99 1021.4
20260502030035 17 0.0 0.0 0.00 0.00 0.00 99 1021.5
20260502021904 17 0.0 0.0 0.00 0.00 0.00 99 1021.8
20260502020852 17 0.0 0.0 0.00 0.00 0.00 99 1021.8
20260502015840 17 0.0 0.0 0.00 0.00 0.00 99 1021.8
20260502014829 17 0.0 0.0 0.00 0.00 0.00 99 1021.9
20260502013823 18 0.0 0.0 0.00 0.00 0.00 99 1022.0
20260502012807 18 0.0 0.0 0.00 0.00 0.00 99 1022.1
20260502011655 18 0.0 0.0 0.00 0.00 0.00 99 1022.1
20260502010644 18 0.0 0.0 0.00 0.00 0.00 99 1022.2
20260502005633 17 0.0 0.0 0.00 0.00 0.00 99 1022.2
20260502004622 17 0.0 0.0 0.00 0.00 0.00 99 1022.2
20260502003616 17 0.0 0.0 0.00 0.00 0.00 99 1022.5
20260502002600 17 0.0 0.0 0.00 0.00 0.00 99 1022.5
20260502001548 17 0.0 0.0 0.00 0.00 0.00 99 1022.6
20260502000537 17 0.0 0.0 0.00 0.00 0.00 99 1022.7
20260501235527 17 0.0 0.0 0.00 0.00 0.00 99 1022.8
20260501234516 17 0.0 0.0 0.00 0.00 0.00 99 1022.9
20260501233509 17 0.0 0.0 0.00 0.00 0.00 99 1023.1
20260501232452 17 0.0 0.0 0.00 0.00 0.00 99 1023.2
20260501231442 17 0.0 0.0 0.00 0.00 0.00 99 1023.3
20260501230430 17 0.0 0.0 0.00 0.00 0.00 99 1023.2
20260501225418 17 0.0 0.0 0.00 0.00 0.00 99 1023.3
20260501224406 17 0.0 0.0 0.00 0.00 0.00 99 1023.1
20260501223401 17 0.0 0.0 0.00 0.00 0.00 99 1023.2
20260501222238 17 0.0 0.0 0.00 0.00 0.00 99 1023.3
20260501221227 17 0.0 0.0 0.00 0.00 0.00 99 1023.4
20260501220215 17 0.0 0.0 0.00 0.00 0.00 99 1023.4
20260501215204 17 0.0 0.0 0.00 0.00 0.00 99 1023.5
20260501214153 17 0.0 0.0 0.00 0.00 0.00 99 1023.4
20260501213147 17 0.0 0.0 0.00 0.00 0.00 99 1023.4
20260501212131 17 0.0 0.0 0.00 0.00 0.00 99 1023.6
20260501211119 17 0.0 0.0 0.00 0.00 0.00 99 1023.7
20260501210108 17 0.0 0.0 0.00 0.00 0.00 99 1023.7
20260501205057 17 0.0 0.0 0.00 0.00 0.00 99 1023.6
20260501204046 17 0.0 0.0 0.00 0.00 0.00 99 1023.5
20260501203041 17 0.0 0.0 0.00 0.00 0.00 99 1023.4
20260501201923 17 0.0 0.0 0.00 0.00 0.00 99 1023.2
20260501200915 17 0.0 0.0 0.00 0.00 0.00 99 1023.1
20260501195900 17 0.0 0.0 0.00 0.00 0.00 99 1022.9
20260501194849 17 0.0 0.0 0.00 0.00 0.00 99 1022.8
20260501193837 17 0.0 0.0 0.00 0.00 0.00 99 1022.7
20260501192730 18 0.0 0.0 0.00 0.00 0.00 99 1022.6
20260501191714 18 0.0 0.0 0.00 0.00 0.00 99 1022.5
20260501190456 18 0.0 0.0 0.00 0.00 0.00 99 1022.4
20260501185326 18 0.0 0.0 0.00 0.00 0.00 99 1022.4
20260501184315 18 0.0 0.0 0.00 0.00 0.00 99 1022.2
20260501183304 18 0.0 0.0 0.00 0.00 0.00 99 1022.1
20260501182259 18 0.0 0.0 0.00 0.00 0.00 99 1022.1
20260501181238 18 0.0 0.0 0.00 0.00 0.00 99 1022.0